Year,Month,Day,Hour,Minute,Value (Times are PST for temperature in C)
2016,09,22,00,00,18.30
2016,09,22,00,01,18.30
2016,09,22,00,02,18.30
2016,09,22,00,03,18.20
2016,09,22,00,04,18.20
2016,09,22,00,05,18.20
2016,09,22,00,06,18.20
2016,09,22,00,07,18.20
2016,09,22,00,08,18.10
2016,09,22,00,09,18.10
2016,09,22,00,10,18.10
2016,09,22,00,11,18.10
2016,09,22,00,12,18.00
2016,09,22,00,13,18.00
2016,09,22,00,14,18.00
2016,09,22,00,15,17.90
2016,09,22,00,16,17.90
2016,09,22,00,17,17.90
2016,09,22,00,18,17.90
2016,09,22,00,19,17.80
2016,09,22,00,20,17.80
2016,09,22,00,21,17.80
2016,09,22,00,22,17.70
2016,09,22,00,23,17.70
2016,09,22,00,24,17.70
2016,09,22,00,25,17.60
2016,09,22,00,26,17.60
2016,09,22,00,27,17.60
2016,09,22,00,28,17.50
2016,09,22,00,29,17.50
2016,09,22,00,30,17.40
2016,09,22,00,31,17.40
2016,09,22,00,32,17.40
2016,09,22,00,33,17.30
2016,09,22,00,34,17.30
2016,09,22,00,35,17.30
2016,09,22,00,36,17.20
2016,09,22,00,37,17.20
2016,09,22,00,38,17.20
2016,09,22,00,39,17.20
2016,09,22,00,40,17.10
2016,09,22,00,41,17.10
2016,09,22,00,42,17.10
2016,09,22,00,43,17.00
2016,09,22,00,44,17.00
2016,09,22,00,45,17.00
2016,09,22,00,46,16.90
2016,09,22,00,47,16.90
2016,09,22,00,48,16.90
2016,09,22,00,49,16.90
2016,09,22,00,50,16.90
2016,09,22,00,51,16.90
2016,09,22,00,52,16.90
2016,09,22,00,53,16.80
2016,09,22,00,54,16.80
2016,09,22,00,55,16.80
2016,09,22,00,56,16.80
2016,09,22,00,57,16.80
2016,09,22,00,58,16.70
2016,09,22,00,59,16.70
2016,09,22,01,00,16.70
2016,09,22,01,01,16.70
2016,09,22,01,02,16.70
2016,09,22,01,03,16.60
2016,09,22,01,04,16.60
2016,09,22,01,05,16.60
2016,09,22,01,06,16.60
2016,09,22,01,07,16.50
2016,09,22,01,08,16.50
2016,09,22,01,09,16.40
2016,09,22,01,10,16.40
2016,09,22,01,11,16.40
2016,09,22,01,12,16.30
2016,09,22,01,13,16.30
2016,09,22,01,14,16.30
2016,09,22,01,15,16.20
2016,09,22,01,16,16.20
2016,09,22,01,17,16.10
2016,09,22,01,18,16.00
2016,09,22,01,19,15.90
2016,09,22,01,20,15.80
2016,09,22,01,21,15.80
2016,09,22,01,22,15.70
2016,09,22,01,23,15.60
2016,09,22,01,24,15.50
2016,09,22,01,25,15.50
2016,09,22,01,26,15.50
2016,09,22,01,27,15.40
2016,09,22,01,28,15.40
2016,09,22,01,29,15.40
2016,09,22,01,30,15.40
2016,09,22,01,31,15.40
2016,09,22,01,32,15.40
2016,09,22,01,33,15.40
2016,09,22,01,34,15.40
2016,09,22,01,35,15.30
2016,09,22,01,36,15.30
2016,09,22,01,37,15.30
2016,09,22,01,38,15.20
2016,09,22,01,39,15.20
2016,09,22,01,40,15.20
2016,09,22,01,41,15.10
2016,09,22,01,42,15.00
2016,09,22,01,43,15.00
2016,09,22,01,44,15.00
2016,09,22,01,45,15.00
2016,09,22,01,46,15.00
2016,09,22,01,47,15.00
2016,09,22,01,48,15.10
2016,09,22,01,49,15.10
2016,09,22,01,50,15.10
2016,09,22,01,51,15.20
2016,09,22,01,52,15.20
2016,09,22,01,53,15.20
2016,09,22,01,54,15.30
2016,09,22,01,55,15.30
2016,09,22,01,56,15.30
2016,09,22,01,57,15.40
2016,09,22,01,58,15.40
2016,09,22,01,59,15.50
2016,09,22,02,00,15.50
2016,09,22,02,01,15.60
2016,09,22,02,02,15.60
2016,09,22,02,03,15.70
2016,09,22,02,04,15.70
2016,09,22,02,05,15.70
2016,09,22,02,06,15.80
2016,09,22,02,07,15.80
2016,09,22,02,08,15.80
2016,09,22,02,09,15.80
2016,09,22,02,10,15.80
2016,09,22,02,11,15.80
2016,09,22,02,12,15.80
2016,09,22,02,13,15.80
2016,09,22,02,14,15.80
2016,09,22,02,15,15.70
2016,09,22,02,16,15.70
2016,09,22,02,17,15.70
2016,09,22,02,18,15.80
2016,09,22,02,19,15.80
2016,09,22,02,20,15.80
2016,09,22,02,21,15.80
2016,09,22,02,22,15.80
2016,09,22,02,23,15.80
2016,09,22,02,24,15.90
2016,09,22,02,25,15.90
2016,09,22,02,26,15.90
2016,09,22,02,27,15.90
2016,09,22,02,28,15.90
2016,09,22,02,29,15.90
2016,09,22,02,30,15.90
2016,09,22,02,31,16.00
2016,09,22,02,32,16.00
2016,09,22,02,33,16.00
2016,09,22,02,34,16.00
2016,09,22,02,35,16.00
2016,09,22,02,36,16.10
2016,09,22,02,37,16.10
2016,09,22,02,38,16.10
2016,09,22,02,39,16.10
2016,09,22,02,40,16.10
2016,09,22,02,41,16.00
2016,09,22,02,42,15.90
2016,09,22,02,43,15.70
2016,09,22,02,44,15.40
2016,09,22,02,45,15.20
2016,09,22,02,46,15.00
2016,09,22,02,47,15.00
2016,09,22,02,48,14.90
2016,09,22,02,49,14.70
2016,09,22,02,50,14.50
2016,09,22,02,51,14.30
2016,09,22,02,52,14.10
2016,09,22,02,53,14.00
2016,09,22,02,54,13.80
2016,09,22,02,55,13.70
2016,09,22,02,56,13.60
2016,09,22,02,57,13.50
2016,09,22,02,58,13.50
2016,09,22,02,59,13.40
2016,09,22,03,00,13.40
2016,09,22,03,01,13.40
2016,09,22,03,02,13.30
2016,09,22,03,03,13.30
2016,09,22,03,04,13.30
2016,09,22,03,05,13.30
2016,09,22,03,06,13.30
2016,09,22,03,07,13.30
2016,09,22,03,08,13.30
2016,09,22,03,09,13.30
2016,09,22,03,10,13.30
2016,09,22,03,11,13.30
2016,09,22,03,12,13.30
2016,09,22,03,13,13.30
2016,09,22,03,14,13.30
2016,09,22,03,15,13.30
2016,09,22,03,16,13.40
2016,09,22,03,17,13.40
2016,09,22,03,18,13.50
2016,09,22,03,19,13.50
2016,09,22,03,20,13.50
2016,09,22,03,21,13.50
2016,09,22,03,22,13.50
2016,09,22,03,23,13.50
2016,09,22,03,24,13.50
2016,09,22,03,25,13.50
2016,09,22,03,26,13.50
2016,09,22,03,27,13.50
2016,09,22,03,28,13.50
2016,09,22,03,29,13.50
2016,09,22,03,30,13.40
2016,09,22,03,31,13.40
2016,09,22,03,32,13.40
2016,09,22,03,33,13.50
2016,09,22,03,34,13.50
2016,09,22,03,35,13.50
2016,09,22,03,36,13.50
2016,09,22,03,37,13.50
2016,09,22,03,38,13.50
2016,09,22,03,39,13.50
2016,09,22,03,40,13.60
2016,09,22,03,41,13.60
2016,09,22,03,42,13.60
2016,09,22,03,43,13.70
2016,09,22,03,44,13.80
2016,09,22,03,45,13.80
2016,09,22,03,46,13.80
2016,09,22,03,47,13.80
2016,09,22,03,48,13.80
2016,09,22,03,49,13.80
2016,09,22,03,50,13.80
2016,09,22,03,51,13.80
2016,09,22,03,52,13.80
2016,09,22,03,53,13.80
2016,09,22,03,54,13.80
2016,09,22,03,55,13.80
2016,09,22,03,56,13.80
2016,09,22,03,57,13.80
2016,09,22,03,58,13.80
2016,09,22,03,59,13.70
2016,09,22,04,00,13.70
2016,09,22,04,01,13.70
2016,09,22,04,02,13.60
2016,09,22,04,03,13.60
2016,09,22,04,04,13.60
2016,09,22,04,05,13.50
2016,09,22,04,06,13.50
2016,09,22,04,07,13.50
2016,09,22,04,08,13.50
2016,09,22,04,09,13.50
2016,09,22,04,10,13.50
2016,09,22,04,11,13.60
2016,09,22,04,12,13.60
2016,09,22,04,13,13.70
2016,09,22,04,14,13.70
2016,09,22,04,15,13.80
2016,09,22,04,16,13.90
2016,09,22,04,17,14.00
2016,09,22,04,18,14.00
2016,09,22,04,19,14.10
2016,09,22,04,20,14.20
2016,09,22,04,21,14.30
2016,09,22,04,22,14.40
2016,09,22,04,23,14.40
2016,09,22,04,24,14.50
2016,09,22,04,25,14.60
2016,09,22,04,26,14.70
2016,09,22,04,27,14.70
2016,09,22,04,28,14.80
2016,09,22,04,29,14.80
2016,09,22,04,30,14.80
2016,09,22,04,31,14.80
2016,09,22,04,32,14.80
2016,09,22,04,33,14.90
2016,09,22,04,34,14.90
2016,09,22,04,35,14.90
2016,09,22,04,36,14.90
2016,09,22,04,37,14.90
2016,09,22,04,38,14.90
2016,09,22,04,39,14.90
2016,09,22,04,40,14.80
2016,09,22,04,41,14.80
2016,09,22,04,42,14.80
2016,09,22,04,43,14.80
2016,09,22,04,44,14.80
2016,09,22,04,45,14.80
2016,09,22,04,46,14.80
2016,09,22,04,47,14.70
2016,09,22,04,48,14.70
2016,09,22,04,49,14.70
2016,09,22,04,50,14.70
2016,09,22,04,51,14.70
2016,09,22,04,52,14.70
2016,09,22,04,53,14.70
2016,09,22,04,54,14.70
2016,09,22,04,55,14.70
2016,09,22,04,56,14.70
2016,09,22,04,57,14.70
2016,09,22,04,58,14.80
2016,09,22,04,59,14.80
2016,09,22,05,00,14.80
2016,09,22,05,01,14.80
2016,09,22,05,02,14.80
2016,09,22,05,03,14.80
2016,09,22,05,04,14.80
2016,09,22,05,05,14.80
2016,09,22,05,06,14.80
2016,09,22,05,07,14.80
2016,09,22,05,08,14.80
2016,09,22,05,09,14.80
2016,09,22,05,10,14.90
2016,09,22,05,11,14.90
2016,09,22,05,12,14.90
2016,09,22,05,13,15.00
2016,09,22,05,14,15.00
2016,09,22,05,15,15.00
2016,09,22,05,16,15.00
2016,09,22,05,17,15.00
2016,09,22,05,18,15.00
2016,09,22,05,19,15.00
2016,09,22,05,20,15.00
2016,09,22,05,21,15.00
2016,09,22,05,22,15.00
2016,09,22,05,23,15.00
2016,09,22,05,24,15.00
2016,09,22,05,25,15.00
2016,09,22,05,26,15.00
2016,09,22,05,27,15.00
2016,09,22,05,28,15.00
2016,09,22,05,29,14.90
2016,09,22,05,30,14.90
2016,09,22,05,31,14.90
2016,09,22,05,32,14.90
2016,09,22,05,33,14.90
2016,09,22,05,34,14.80
2016,09,22,05,35,14.80
2016,09,22,05,36,14.80
2016,09,22,05,37,14.70
2016,09,22,05,38,14.60
2016,09,22,05,39,14.50
2016,09,22,05,40,14.40
2016,09,22,05,41,14.30
2016,09,22,05,42,14.20
2016,09,22,05,43,14.10
2016,09,22,05,44,14.00
2016,09,22,05,45,13.90
2016,09,22,05,46,13.80
2016,09,22,05,47,13.70
2016,09,22,05,48,13.60
2016,09,22,05,49,13.40
2016,09,22,05,50,13.30
2016,09,22,05,51,13.30
2016,09,22,05,52,13.20
2016,09,22,05,53,13.20
2016,09,22,05,54,13.20
2016,09,22,05,55,13.10
2016,09,22,05,56,13.10
2016,09,22,05,57,13.10
2016,09,22,05,58,13.10
2016,09,22,05,59,13.10
2016,09,22,06,00,13.10
2016,09,22,06,01,13.10
2016,09,22,06,02,13.10
2016,09,22,06,03,13.10
2016,09,22,06,04,13.10
2016,09,22,06,05,13.10
2016,09,22,06,06,13.10
2016,09,22,06,07,13.10
2016,09,22,06,08,13.10
2016,09,22,06,09,13.10
2016,09,22,06,10,13.10
2016,09,22,06,11,13.10
2016,09,22,06,12,13.00
2016,09,22,06,13,13.00
2016,09,22,06,14,12.90
2016,09,22,06,15,12.90
2016,09,22,06,16,12.90
2016,09,22,06,17,12.90
2016,09,22,06,18,12.90
2016,09,22,06,19,12.80
2016,09,22,06,20,12.80
2016,09,22,06,21,12.70
2016,09,22,06,22,12.70
2016,09,22,06,23,12.60
2016,09,22,06,24,12.50
2016,09,22,06,25,12.50
2016,09,22,06,26,12.40
2016,09,22,06,27,12.40
2016,09,22,06,28,12.40
2016,09,22,06,29,12.30
2016,09,22,06,30,12.30
2016,09,22,06,31,12.30
2016,09,22,06,32,12.30
2016,09,22,06,33,12.30
2016,09,22,06,34,12.30
2016,09,22,06,35,12.30
2016,09,22,06,36,12.20
2016,09,22,06,37,12.20
2016,09,22,06,38,12.20
2016,09,22,06,39,12.20
2016,09,22,06,40,12.20
2016,09,22,06,41,12.20
2016,09,22,06,42,12.10
2016,09,22,06,43,12.10
2016,09,22,06,44,12.10
2016,09,22,06,45,12.10
2016,09,22,06,46,12.10
2016,09,22,06,47,12.10
2016,09,22,06,48,12.10
2016,09,22,06,49,12.10
2016,09,22,06,50,12.10
2016,09,22,06,51,12.10
2016,09,22,06,52,12.20
2016,09,22,06,53,12.20
2016,09,22,06,54,12.20
2016,09,22,06,55,12.20
2016,09,22,06,56,12.30
2016,09,22,06,57,12.30
2016,09,22,06,58,12.30
2016,09,22,06,59,12.30
2016,09,22,07,00,12.30
2016,09,22,07,01,12.30
2016,09,22,07,02,12.30
2016,09,22,07,03,12.30
2016,09,22,07,04,12.30
2016,09,22,07,05,12.20
2016,09,22,07,06,12.20
2016,09,22,07,07,12.20
2016,09,22,07,08,12.10
2016,09,22,07,09,12.10
2016,09,22,07,10,12.20
2016,09,22,07,11,12.20
2016,09,22,07,12,12.20
2016,09,22,07,13,12.30
2016,09,22,07,14,12.40
2016,09,22,07,15,12.40
2016,09,22,07,16,12.40
2016,09,22,07,17,12.40
2016,09,22,07,18,12.40
2016,09,22,07,19,12.40
2016,09,22,07,20,12.40
2016,09,22,07,21,12.40
2016,09,22,07,22,12.30
2016,09,22,07,23,12.30
2016,09,22,07,24,12.40
2016,09,22,07,25,12.40
2016,09,22,07,26,12.40
2016,09,22,07,27,12.50
2016,09,22,07,28,12.50
2016,09,22,07,29,12.50
2016,09,22,07,30,12.60
2016,09,22,07,31,12.60
2016,09,22,07,32,12.60
2016,09,22,07,33,12.60
2016,09,22,07,34,12.60
2016,09,22,07,35,12.60
2016,09,22,07,36,12.70
2016,09,22,07,37,12.70
2016,09,22,07,38,12.70
2016,09,22,07,39,12.70
2016,09,22,07,40,12.80
2016,09,22,07,41,12.80
2016,09,22,07,42,12.80
2016,09,22,07,43,12.80
2016,09,22,07,44,12.90
2016,09,22,07,45,12.90
2016,09,22,07,46,12.90
2016,09,22,07,47,12.80
2016,09,22,07,48,12.80
2016,09,22,07,49,12.80
2016,09,22,07,50,12.80
2016,09,22,07,51,12.70
2016,09,22,07,52,12.80
2016,09,22,07,53,12.80
2016,09,22,07,54,12.90
2016,09,22,07,55,12.90
2016,09,22,07,56,13.00
2016,09,22,07,57,13.10
2016,09,22,07,58,13.20
2016,09,22,07,59,13.30
2016,09,22,08,00,13.30
2016,09,22,08,01,13.40
2016,09,22,08,02,13.40
2016,09,22,08,03,13.50
2016,09,22,08,04,13.60
2016,09,22,08,05,13.60
2016,09,22,08,06,13.70
2016,09,22,08,07,13.70
2016,09,22,08,08,13.70
2016,09,22,08,09,13.80
2016,09,22,08,10,13.80
2016,09,22,08,11,13.80
2016,09,22,08,12,13.80
2016,09,22,08,13,13.80
2016,09,22,08,14,13.80
2016,09,22,08,15,13.80
2016,09,22,08,16,13.80
2016,09,22,08,17,13.80
2016,09,22,08,18,13.80
2016,09,22,08,19,13.90
2016,09,22,08,20,13.90
2016,09,22,08,21,13.90
2016,09,22,08,22,14.00
2016,09,22,08,23,14.00
2016,09,22,08,24,14.00
2016,09,22,08,25,14.00
2016,09,22,08,26,13.90
2016,09,22,08,27,13.80
2016,09,22,08,28,13.80
2016,09,22,08,29,13.70
2016,09,22,08,30,13.70
2016,09,22,08,31,13.70
2016,09,22,08,32,13.70
2016,09,22,08,33,13.60
2016,09,22,08,34,13.60
2016,09,22,08,35,13.60
2016,09,22,08,36,13.60
2016,09,22,08,37,13.60
2016,09,22,08,38,13.70
2016,09,22,08,39,13.70
2016,09,22,08,40,13.70
2016,09,22,08,41,13.70
2016,09,22,08,42,13.70
2016,09,22,08,43,13.60
2016,09,22,08,44,13.60
2016,09,22,08,45,13.60
2016,09,22,08,46,13.60
2016,09,22,08,47,13.60
2016,09,22,08,48,13.60
2016,09,22,08,49,13.70
2016,09,22,08,50,13.70
2016,09,22,08,51,13.80
2016,09,22,08,52,13.80
2016,09,22,08,53,13.80
2016,09,22,08,54,13.90
2016,09,22,08,55,13.90
2016,09,22,08,56,14.00
2016,09,22,08,57,14.10
2016,09,22,08,58,14.10
2016,09,22,08,59,14.10
2016,09,22,09,00,14.10
2016,09,22,09,01,14.20
2016,09,22,09,02,14.20
2016,09,22,09,03,14.20
2016,09,22,09,04,14.20
2016,09,22,09,05,14.30
2016,09,22,09,06,14.30
2016,09,22,09,07,14.30
2016,09,22,09,08,14.40
2016,09,22,09,09,14.50
2016,09,22,09,10,14.60
2016,09,22,09,11,14.70
2016,09,22,09,12,14.80
2016,09,22,09,13,14.80
2016,09,22,09,14,14.90
2016,09,22,09,15,15.00
2016,09,22,09,16,15.00
2016,09,22,09,17,15.00
2016,09,22,09,18,15.00
2016,09,22,09,19,15.00
2016,09,22,09,20,15.00
2016,09,22,09,21,15.00
2016,09,22,09,22,15.00
2016,09,22,09,23,15.00
2016,09,22,09,24,14.90
2016,09,22,09,25,14.80
2016,09,22,09,26,14.80
2016,09,22,09,27,14.70
2016,09,22,09,28,14.80
2016,09,22,09,29,14.80
2016,09,22,09,30,14.80
2016,09,22,09,31,14.80
2016,09,22,09,32,14.80
2016,09,22,09,33,14.90
2016,09,22,09,34,14.90
2016,09,22,09,35,14.80
2016,09,22,09,36,14.70
2016,09,22,09,37,14.60
2016,09,22,09,38,14.50
2016,09,22,09,39,14.40
2016,09,22,09,40,14.40
2016,09,22,09,41,14.40
2016,09,22,09,42,14.40
2016,09,22,09,43,14.40
2016,09,22,09,44,14.40
2016,09,22,09,45,14.40
2016,09,22,09,46,14.40
2016,09,22,09,47,14.40
2016,09,22,09,48,14.50
2016,09,22,09,49,14.50
2016,09,22,09,50,14.50
2016,09,22,09,51,14.60
2016,09,22,09,52,14.60
2016,09,22,09,53,14.60
2016,09,22,09,54,14.60
2016,09,22,09,55,14.60
2016,09,22,09,56,14.50
2016,09,22,09,57,14.50
2016,09,22,09,58,14.50
2016,09,22,09,59,14.40
2016,09,22,10,00,14.40
2016,09,22,10,01,14.40
2016,09,22,10,02,14.40
2016,09,22,10,03,14.50
2016,09,22,10,04,14.50
2016,09,22,10,05,14.60
2016,09,22,10,06,14.70
2016,09,22,10,07,14.80
2016,09,22,10,08,14.90
2016,09,22,10,09,14.90
2016,09,22,10,10,15.00
2016,09,22,10,11,15.00
2016,09,22,10,12,15.00
2016,09,22,10,13,15.00
2016,09,22,10,14,15.00
2016,09,22,10,15,15.00
2016,09,22,10,16,15.00
2016,09,22,10,17,15.00
2016,09,22,10,18,15.00
2016,09,22,10,19,15.00
2016,09,22,10,20,15.00
2016,09,22,10,21,15.00
2016,09,22,10,22,15.00
2016,09,22,10,23,15.00
2016,09,22,10,24,15.00
2016,09,22,10,25,15.00
2016,09,22,10,26,15.00
2016,09,22,10,27,15.10
2016,09,22,10,28,15.20
2016,09,22,10,29,15.20
2016,09,22,10,30,15.30
2016,09,22,10,31,15.30
2016,09,22,10,32,15.30
2016,09,22,10,33,15.20
2016,09,22,10,34,15.30
2016,09,22,10,35,15.30
2016,09,22,10,36,15.30
2016,09,22,10,37,15.30
2016,09,22,10,38,15.30
2016,09,22,10,39,15.40
2016,09,22,10,40,15.40
2016,09,22,10,41,15.40
2016,09,22,10,42,15.40
2016,09,22,10,43,15.40
2016,09,22,10,44,15.30
2016,09,22,10,45,15.30
2016,09,22,10,46,15.30
2016,09,22,10,47,15.30
2016,09,22,10,48,15.30
2016,09,22,10,49,15.30
2016,09,22,10,50,15.30
2016,09,22,10,51,15.30
2016,09,22,10,52,15.40
2016,09,22,10,53,15.50
2016,09,22,10,54,15.60
2016,09,22,10,55,15.70
2016,09,22,10,56,15.80
2016,09,22,10,57,15.80
2016,09,22,10,58,15.80
2016,09,22,10,59,15.70
2016,09,22,11,00,15.70
2016,09,22,11,01,15.70
2016,09,22,11,02,15.60
2016,09,22,11,03,15.60
2016,09,22,11,04,15.50
2016,09,22,11,05,15.40
2016,09,22,11,06,15.40
2016,09,22,11,07,15.40
2016,09,22,11,08,15.40
2016,09,22,11,09,15.30
2016,09,22,11,10,15.30
2016,09,22,11,11,15.30
2016,09,22,11,12,15.30
2016,09,22,11,13,15.40
2016,09,22,11,14,15.40
2016,09,22,11,15,15.50
2016,09,22,11,16,15.60
2016,09,22,11,17,15.70
2016,09,22,11,18,15.70
2016,09,22,11,19,15.70
2016,09,22,11,20,15.80
2016,09,22,11,21,15.80
2016,09,22,11,22,15.80
2016,09,22,11,23,15.90
2016,09,22,11,24,16.00
2016,09,22,11,25,16.00
2016,09,22,11,26,16.10
2016,09,22,11,27,16.10
2016,09,22,11,28,16.20
2016,09,22,11,29,16.20
2016,09,22,11,30,16.20
2016,09,22,11,31,16.30
2016,09,22,11,32,16.30
2016,09,22,11,33,16.30
2016,09,22,11,34,16.30
2016,09,22,11,35,16.30
2016,09,22,11,36,16.30
2016,09,22,11,37,16.30
2016,09,22,11,38,16.40
2016,09,22,11,39,16.40
2016,09,22,11,40,16.40
2016,09,22,11,41,16.40
2016,09,22,11,42,16.40
2016,09,22,11,43,16.40
2016,09,22,11,44,16.40
2016,09,22,11,45,16.40
2016,09,22,11,46,16.50
2016,09,22,11,47,16.50
2016,09,22,11,48,16.50
2016,09,22,11,49,16.40
2016,09,22,11,50,16.40
2016,09,22,11,51,16.40
2016,09,22,11,52,16.50
2016,09,22,11,53,16.60
2016,09,22,11,54,16.70
2016,09,22,11,55,16.80
2016,09,22,11,56,16.90
2016,09,22,11,57,16.90
2016,09,22,11,58,16.90
2016,09,22,11,59,17.00
2016,09,22,12,00,16.90
2016,09,22,12,01,16.90
2016,09,22,12,02,16.90
2016,09,22,12,03,16.90
2016,09,22,12,04,16.90
2016,09,22,12,05,16.80
2016,09,22,12,06,16.70
2016,09,22,12,07,16.70
2016,09,22,12,08,16.70
2016,09,22,12,09,16.70
2016,09,22,12,10,16.80
2016,09,22,12,11,16.90
2016,09,22,12,12,16.90
2016,09,22,12,13,17.00
2016,09,22,12,14,17.10
2016,09,22,12,15,17.10
2016,09,22,12,16,17.10
2016,09,22,12,17,17.10
2016,09,22,12,18,17.00
2016,09,22,12,19,17.00
2016,09,22,12,20,17.00
2016,09,22,12,21,17.10
2016,09,22,12,22,17.10
2016,09,22,12,23,17.20
2016,09,22,12,24,17.20
2016,09,22,12,25,17.20
2016,09,22,12,26,17.20
2016,09,22,12,27,17.10
2016,09,22,12,28,17.10
2016,09,22,12,29,17.10
2016,09,22,12,30,17.10
2016,09,22,12,31,17.10
2016,09,22,12,32,17.10
2016,09,22,12,33,17.10
2016,09,22,12,34,17.20
2016,09,22,12,35,17.20
2016,09,22,12,36,17.30
2016,09,22,12,37,17.40
2016,09,22,12,38,17.40
2016,09,22,12,39,17.40
2016,09,22,12,40,17.30
2016,09,22,12,41,17.30
2016,09,22,12,42,17.30
2016,09,22,12,43,17.20
2016,09,22,12,44,17.20
2016,09,22,12,45,17.20
2016,09,22,12,46,17.30
2016,09,22,12,47,17.40
2016,09,22,12,48,17.40
2016,09,22,12,49,17.40
2016,09,22,12,50,17.50
2016,09,22,12,51,17.50
2016,09,22,12,52,17.50
2016,09,22,12,53,17.60
2016,09,22,12,54,17.60
2016,09,22,12,55,17.70
2016,09,22,12,56,17.70
2016,09,22,12,57,17.70
2016,09,22,12,58,17.70
2016,09,22,12,59,17.70
2016,09,22,13,00,17.80
2016,09,22,13,01,17.80
2016,09,22,13,02,17.80
2016,09,22,13,03,17.80
2016,09,22,13,04,17.70
2016,09,22,13,05,17.70
2016,09,22,13,06,17.60
2016,09,22,13,07,17.50
2016,09,22,13,08,17.40
2016,09,22,13,09,17.40
2016,09,22,13,10,17.30
2016,09,22,13,11,17.30
2016,09,22,13,12,17.20
2016,09,22,13,13,17.10
2016,09,22,13,14,17.00
2016,09,22,13,15,16.80
2016,09,22,13,16,16.80
2016,09,22,13,17,16.70
2016,09,22,13,18,16.60
2016,09,22,13,19,16.50
2016,09,22,13,20,16.40
2016,09,22,13,21,16.40
2016,09,22,13,22,16.40
2016,09,22,13,23,16.30
2016,09,22,13,24,16.30
2016,09,22,13,25,16.30
2016,09,22,13,26,16.30
2016,09,22,13,27,16.30
2016,09,22,13,28,16.30
2016,09,22,13,29,16.30
2016,09,22,13,30,16.30
2016,09,22,13,31,16.30
2016,09,22,13,32,16.30
2016,09,22,13,33,16.40
2016,09,22,13,34,16.40
2016,09,22,13,35,16.50
2016,09,22,13,36,16.60
2016,09,22,13,37,16.70
2016,09,22,13,38,16.70
2016,09,22,13,39,16.70
2016,09,22,13,40,16.70
2016,09,22,13,41,16.70
2016,09,22,13,42,16.70
2016,09,22,13,43,16.80
2016,09,22,13,44,16.80
2016,09,22,13,45,16.80
2016,09,22,13,46,16.80
2016,09,22,13,47,16.80
2016,09,22,13,48,16.80
2016,09,22,13,49,16.80
2016,09,22,13,50,16.90
2016,09,22,13,51,16.90
2016,09,22,13,52,16.90
2016,09,22,13,53,17.00
2016,09,22,13,54,17.10
2016,09,22,13,55,17.10
2016,09,22,13,56,17.20
2016,09,22,13,57,17.20
2016,09,22,13,58,17.20
2016,09,22,13,59,17.20
2016,09,22,14,00,17.20
2016,09,22,14,01,17.10
2016,09,22,14,02,17.10
2016,09,22,14,03,17.10
2016,09,22,14,04,17.00
2016,09,22,14,05,17.00
2016,09,22,14,06,17.10
2016,09,22,14,07,17.10
2016,09,22,14,08,17.20
2016,09,22,14,09,17.20
2016,09,22,14,10,17.20
2016,09,22,14,11,17.20
2016,09,22,14,12,17.30
2016,09,22,14,13,17.30
2016,09,22,14,14,17.30
2016,09,22,14,15,17.30
2016,09,22,14,16,17.30
2016,09,22,14,17,17.30
2016,09,22,14,18,17.30
2016,09,22,14,19,17.30
2016,09,22,14,20,17.30
2016,09,22,14,21,17.40
2016,09,22,14,22,17.40
2016,09,22,14,23,17.50
2016,09,22,14,24,17.60
2016,09,22,14,25,17.60
2016,09,22,14,26,17.60
2016,09,22,14,27,17.60
2016,09,22,14,28,17.70
2016,09,22,14,29,17.70
2016,09,22,14,30,17.70
2016,09,22,14,31,17.70
2016,09,22,14,32,17.60
2016,09,22,14,33,17.60
2016,09,22,14,34,17.60
2016,09,22,14,35,17.60
2016,09,22,14,36,17.60
2016,09,22,14,37,17.60
2016,09,22,14,38,17.60
2016,09,22,14,39,17.70
2016,09,22,14,40,17.80
2016,09,22,14,41,17.80
2016,09,22,14,42,17.80
2016,09,22,14,43,17.80
2016,09,22,14,44,17.80
2016,09,22,14,45,17.80
2016,09,22,14,46,17.80
2016,09,22,14,47,17.70
2016,09,22,14,48,17.70
2016,09,22,14,49,17.80
2016,09,22,14,50,17.80
2016,09,22,14,51,17.70
2016,09,22,14,52,17.70
2016,09,22,14,53,17.70
2016,09,22,14,54,17.70
2016,09,22,14,55,17.70
2016,09,22,14,56,17.70
2016,09,22,14,57,17.60
2016,09,22,14,58,17.60
2016,09,22,14,59,17.50
2016,09,22,15,00,17.40
2016,09,22,15,01,17.40
2016,09,22,15,02,17.40
2016,09,22,15,03,17.50
2016,09,22,15,04,17.50
2016,09,22,15,05,17.60
2016,09,22,15,06,17.70
2016,09,22,15,07,17.70
2016,09,22,15,08,17.80
2016,09,22,15,09,17.80
2016,09,22,15,10,17.90
2016,09,22,15,11,17.90
2016,09,22,15,12,18.00
2016,09,22,15,13,18.00
2016,09,22,15,14,18.10
2016,09,22,15,15,18.10
2016,09,22,15,16,18.10
2016,09,22,15,17,18.10
2016,09,22,15,18,18.10
2016,09,22,15,19,18.10
2016,09,22,15,20,18.00
2016,09,22,15,21,17.90
2016,09,22,15,22,17.90
2016,09,22,15,23,17.80
2016,09,22,15,24,17.80
2016,09,22,15,25,17.70
2016,09,22,15,26,17.70
2016,09,22,15,27,17.70
2016,09,22,15,28,17.70
2016,09,22,15,29,17.70
2016,09,22,15,30,17.70
2016,09,22,15,31,17.80
2016,09,22,15,32,17.80
2016,09,22,15,33,17.80
2016,09,22,15,34,17.80
2016,09,22,15,35,17.80
2016,09,22,15,36,17.80
2016,09,22,15,37,17.90
2016,09,22,15,38,18.00
2016,09,22,15,39,18.00
2016,09,22,15,40,18.10
2016,09,22,15,41,18.00
2016,09,22,15,42,18.00
2016,09,22,15,43,18.00
2016,09,22,15,44,18.00
2016,09,22,15,45,18.00
2016,09,22,15,46,18.00
2016,09,22,15,47,18.00
2016,09,22,15,48,17.90
2016,09,22,15,49,17.90
2016,09,22,15,50,17.80
2016,09,22,15,51,17.80
2016,09,22,15,52,17.80
2016,09,22,15,53,17.70
2016,09,22,15,54,17.70
2016,09,22,15,55,17.60
2016,09,22,15,56,17.60
2016,09,22,15,57,17.60
2016,09,22,15,58,17.50
2016,09,22,15,59,17.50
2016,09,22,16,00,17.40
2016,09,22,16,01,17.40
2016,09,22,16,02,17.50
2016,09,22,16,03,17.50
2016,09,22,16,04,17.60
2016,09,22,16,05,17.60
2016,09,22,16,06,17.70
2016,09,22,16,07,17.80
2016,09,22,16,08,17.80
2016,09,22,16,09,17.80
2016,09,22,16,10,17.90
2016,09,22,16,11,17.90
2016,09,22,16,12,17.90
2016,09,22,16,13,17.90
2016,09,22,16,14,17.80
2016,09,22,16,15,17.80
2016,09,22,16,16,17.80
2016,09,22,16,17,17.80
2016,09,22,16,18,17.80
2016,09,22,16,19,17.80
2016,09,22,16,20,17.80
2016,09,22,16,21,17.80
2016,09,22,16,22,17.80
2016,09,22,16,23,17.80
2016,09,22,16,24,17.80
2016,09,22,16,25,17.80
2016,09,22,16,26,17.90
2016,09,22,16,27,18.00
2016,09,22,16,28,18.00
2016,09,22,16,29,18.00
2016,09,22,16,30,18.00
2016,09,22,16,31,18.00
2016,09,22,16,32,18.10
2016,09,22,16,33,18.10
2016,09,22,16,34,18.00
2016,09,22,16,35,18.10
2016,09,22,16,36,18.10
2016,09,22,16,37,18.10
2016,09,22,16,38,18.10
2016,09,22,16,39,18.10
2016,09,22,16,40,18.10
2016,09,22,16,41,18.10
2016,09,22,16,42,18.00
2016,09,22,16,43,18.00
2016,09,22,16,44,18.00
2016,09,22,16,45,18.00
2016,09,22,16,46,18.10
2016,09,22,16,47,18.10
2016,09,22,16,48,18.10
2016,09,22,16,49,18.10
2016,09,22,16,50,18.10
2016,09,22,16,51,18.20
2016,09,22,16,52,18.20
2016,09,22,16,53,18.20
2016,09,22,16,54,18.30
2016,09,22,16,55,18.30
2016,09,22,16,56,18.40
2016,09,22,16,57,18.40
2016,09,22,16,58,18.40
2016,09,22,16,59,18.40
2016,09,22,17,00,18.40
2016,09,22,17,01,18.40
2016,09,22,17,02,18.40
2016,09,22,17,03,18.40
2016,09,22,17,04,18.40
2016,09,22,17,05,18.40
2016,09,22,17,06,18.40
2016,09,22,17,07,18.40
2016,09,22,17,08,18.30
2016,09,22,17,09,18.20
2016,09,22,17,10,18.10
2016,09,22,17,11,18.00
2016,09,22,17,12,17.90
2016,09,22,17,13,17.90
2016,09,22,17,14,17.80
2016,09,22,17,15,17.80
2016,09,22,17,16,17.70
2016,09,22,17,17,17.70
2016,09,22,17,18,17.60
2016,09,22,17,19,17.60